Location: El Chorro
(10.0985°N, 67.3542°W)
Time: 19:09:02
(UTC+00:00)

ARIANE 5 R/B - Pass Details

Date: 15 November 2025
Orbit: 746 x 792 km, 98.8° (Epoch: 06 December)

Event Time Altitude Azimuth Distance (km) Brightness Sun altitude
Rises 22:41:04 0° 175° (S) 3,201 5.9 -9.5°
Reaches altitude 10° 22:43:24 10° 178° (S) 2,270 5.2 -10.1°
Maximum altitude 22:48:18 60° 258° (WSW) 853 3.1 -11.2°
Drops below altitude 10° 22:53:11 10° 338° (NNW) 2,256 5.0 -12.4°
Sets 22:55:30 0° 341° (NNW) 3,178 5.7 -12.9°
